SCP
3 3 3 3 2 2 2 1 1 1 1 1 1 1 1 1 1 2 2 2 2 2 2 2 2 1 1 1 1 1 1 1 1 1 1 0 0 1 1 1 1 1 2
3 3 3 3 2 2 2 1 1 1 1 1 1 1 1 1 1 1 2 2 2 2 2 2 2 2 2 2 1 1 1 1 1 1 0 0 0 1 1 1 1 1 2
3 3 3 3 2 2 2 1 1 1 1 1 1 1 1 1 1 1 2 2 2 2 2 2 2 2 2 2 2 1 1 1 1 1 0 0 0 1 1 1 1 1 1
3 3 3 3 3 2 2 2 1 1 1 1 1 1 1 1 1 2 2 2 2 2 3 3 2 2 2 2 2 1 1 1 1 0 0 0 1 1 2 2 1 1 1
3 3 3 3 3 3 2 2 2 2 1 1 1 2 2 2 2 2 2 2 3 3 3 3 3 2 2 2 2 1 1 1 1 1 1 1 1 2 2 2 2 2 2
3 3 3 3 3 3 3 2 2 2 2 2 2 2 2 3 3 3 3 3 3 3 3 3 3 3 2 2 2 1 1 1 1 1 1 1 1 2 3 3 3 2 2
4 3 3 3 3 3 2 2 2 2 2 2 3 3 3 4 4 4 3 3 3 3 3 3 3 3 3 2 2 2 1 1 1 1 1 1 1 2 3 4 4 3 3
4 4 3 3 3 2 2 2 2 2 3 3 3 3 3 4 4 4 4 3 3 3 3 3 3 4 4 3 3 2 2 1 1 1 1 1 2 2 3 4 5 4 4
5 5 4 3 2 3 2 2 3 3 3 3 2 2 3 3 4 4 4 3 3 3 2 2 3 3 4 3 3 2 2 2 1 1 1 1 2 3 3 4 5 5 5
5 6 5 3 3 2 2 2 3 3 3 3 2 2 3 3 3 3 3 3 3 3 2 2 2 2 2 2 2 2 2 2 1 1 1 2 2 3 3 4 5 5 5
5 5 5 4 3 3 2 2 3 3 3 3 3 3 3 2 2 2 2 2 3 2 2 2 2 1 1 1 1 2 1 1 1 1 1 2 3 3 3 3 4 5 5
4 5 6 5 4 3 3 3 3 2 3 3 3 3 3 2 2 1 2 2 2 2 2 2 2 1 1 1 1 1 1 1 1 1 2 3 3 3 3 3 3 4 4
4 5 6 6 5 4 3 3 3 3 3 3 3 3 3 2 2 2 2 3 2 2 2 2 2 1 1 1 1 1 1 1 1 1 2 3 4 4 3 3 3 3 3
5 5 5 6 6 5 5 5 4 3 3 3 3 4 4 3 3 3 3 3 3 2 2 2 2 2 2 1 1 1 1 1 1 1 2 3 5 4 3 3 3 3 3
6 5 5 6 8 9 9 7 6 5 4 4 4 4 4 4 4 4 4 5 4 3 2 2 2 2 2 2 1 1 1 1 1 1 2 3 4 4 3 2 2 2 2
7 7 8 9 11 12 12 10 8 6 5 5 5 5 5 5 5 5 5 6 5 4 3 2 2 2 2 2 1 1 2 2 2 2 2 2 2 2 2 2 2 2 2
9 10 11 11 12 13 13 11 9 7 7 7 7 8 7 7 6 5 5 6 6 5 4 4 3 3 2 2 1 1 2 2 3 2 2 1 2 2 2 2 2 2 2
9 10 10 11 11 13 13 12 10 9 8 8 9 11 12 10 9 7 6 7 7 7 6 5 4 4 3 2 1 1 2 3 3 3 2 2 2 2 2 2 2 2 2
10 9 9 9 11 12 12 12 11 10 9 9 10 13 15 14 11 9 7 7 8 7 7 7 6 5 4 2 2 1 1 2 3 3 3 2 2 2 1 1 2 2 2
11 10 9 9 9 10 10 11 11 11 11 11 10 12 15 16 14 11 8 7 7 7 7 7 7 6 4 3 2 2 1 2 2 3 3 3 2 2 1 2 2 2 2
9 10 10 8 7 7 7 8 10 11 12 11 10 11 13 15 15 12 10 8 7 7 7 8 7 6 4 4 3 2 2 2 2 2 4 4 3 2 2 2 2 2 2
7 8 8 7 6 5 6 7 9 10 11 10 9 9 11 13 13 12 10 8 7 7 8 8 7 6 5 4 3 3 2 2 2 2 4 4 4 3 2 2 3 3 2
5 5 6 5 5 5 7 8 8 8 8 8 7 8 9 10 11 10 8 7 7 7 8 8 7 6 5 4 3 3 3 2 2 2 3 4 4 4 3 3 3 3 3
5 5 5 4 4 5 7 9 8 7 6 6 6 6 7 7 8 7 6 6 6 6 7 6 6 6 5 4 3 3 3 2 2 2 3 3 4 4 3 3 3 3 3
5 5 4 4 4 5 6 7 7 7 6 6 6 6 6 6 6 5 5 5 5 5 5 5 5 6 5 4 3 3 3 3 2 2 2 2 3 3 3 3 3 3 4
5 4 3 4 5 6 6 6 6 6 6 6 5 5 5 5 5 5 5 5 5 5 4 4 4 5 5 4 3 3 3 3 3 2 2 2 2 2 2 3 3 3 3
Wind_Speed
16 17 17 15 14 13 12 12 12 12 12 12 11 10 10 9 9 9 9 9 9 8 8 7 6 6 5 5 5 5 5 5 4 4 3 2 3 3 3 3 2 3 7
19 17 17 15 14 13 13 13 12 12 12 11 11 10 10 9 9 9 8 8 8 7 6 6 5 4 4 3 3 3 3 2 2 2 2 2 3 3 3 3 4 4 6
19 17 16 15 14 14 13 13 13 12 12 11 11 10 9 9 8 8 7 7 6 6 5 5 4 3 3 2 2 2 1 1 2 4 5 5 5 7 5 4 4 4 4
18 15 14 16 15 14 13 13 12 12 12 11 11 10 9 8 8 7 7 6 5 5 4 4 3 2 2 1 1 1 2 3 4 6 6 5 4 8 8 6 4 4 3
16 15 15 16 15 14 14 13 12 12 12 11 10 9 9 8 7 6 6 5 5 4 3 3 2 1 1 1 1 2 4 5 6 8 7 1 3 8 8 7 5 4 3
15 15 16 16 15 14 13 13 12 12 11 11 10 9 8 7 6 6 5 4 4 3 2 2 1 0 0 1 2 3 5 6 8 7 4 2 4 8 8 7 5 4 3
15 14 15 15 15 14 13 13 12 11 11 10 9 9 8 7 6 5 5 4 3 3 2 2 1 1 1 2 3 4 6 7 7 6 2 1 5 9 8 6 5 4 4
15 15 14 15 15 14 13 12 12 11 10 10 9 9 8 7 7 6 5 4 3 3 3 3 2 3 3 4 4 5 7 9 8 6 2 3 7 9 7 6 5 4 4
14 14 12 12 12 12 12 11 11 11 10 9 9 8 8 7 7 7 6 5 4 3 3 3 4 4 4 5 6 7 8 9 8 6 3 2 7 8 6 5 4 4 4
12 12 11 11 10 9 10 11 11 11 10 9 8 8 8 8 8 7 7 6 5 5 5 5 5 6 6 7 8 9 10 9 8 6 2 3 8 7 5 4 4 4 4
10 11 10 10 9 9 9 10 10 10 9 8 7 7 7 5 6 6 6 6 7 7 6 7 7 8 8 9 11 11 10 6 7 3 1 6 7 6 5 4 4 4 5
9 10 9 10 9 8 7 7 6 6 6 6 4 5 4 3 3 3 6 7 8 8 7 8 9 9 8 6 8 11 5 7 6 2 3 8 6 4 3 3 4 5 6
8 7 8 9 7 7 6 6 4 4 4 5 4 4 3 3 2 2 2 4 5 7 5 5 7 5 4 3 3 4 5 4 2 1 3 7 6 5 4 4 4 5 6
8 8 7 8 7 5 5 4 4 3 4 3 4 4 3 2 1 1 1 1 2 2 2 2 3 2 3 3 3 4 4 3 1 0 2 6 5 5 5 5 6 6 7
6 6 6 5 6 4 3 2 4 3 4 3 3 3 2 2 1 1 0 1 2 1 1 2 2 2 3 3 4 4 3 3 2 1 2 6 7 7 7 7 7 7 8
5 5 5 6 6 4 4 2 2 2 2 3 3 3 2 1 1 0 1 1 1 1 1 2 3 3 3 2 3 3 3 3 1 2 2 4 7 8 8 8 8 8 9
4 4 4 5 5 4 4 3 2 2 2 2 3 3 2 1 1 1 1 1 1 1 2 2 3 2 3 3 3 3 3 3 3 2 3 3 4 8 10 9 9 9 9
4 4 4 3 5 4 3 2 1 1 2 2 2 3 3 2 2 2 1 1 1 2 2 2 1 2 3 3 3 3 3 3 4 4 3 3 3 3 7 9 9 9 9
3 4 3 2 4 4 3 2 1 1 1 1 2 2 2 2 2 1 1 1 2 2 2 2 1 2 3 3 4 4 3 3 3 5 4 4 3 3 3 7 10 10 10
3 4 4 3 3 2 2 1 1 1 1 1 1 2 2 2 2 2 2 1 2 2 2 2 2 3 3 4 5 5 3 4 3 3 4 4 3 4 3 4 4 6 9
4 3 3 3 3 2 2 2 2 2 2 1 1 2 2 2 2 2 2 2 3 2 2 3 3 4 4 3 3 4 4 5 4 3 3 3 3 4 3 3 3 3 4
4 3 3 2 2 2 2 2 2 1 2 2 1 2 2 2 2 3 2 2 3 3 3 3 3 3 4 3 2 3 3 2 3 4 3 3 4 3 4 5 4 3 3
4 3 2 2 2 2 2 2 1 1 1 1 2 2 2 2 2 2 2 2 2 3 2 3 3 3 3 3 2 2 2 2 3 2 4 4 4 3 4 3 4 4 4
4 4 3 3 2 2 2 2 3 2 2 2 2 1 2 2 3 3 2 2 2 2 2 3 2 2 3 4 3 3 3 3 3 3 3 3 3 4 4 4 4 3 4
3 3 3 2 2 1 1 1 1 2 2 1 1 2 2 2 3 3 2 2 1 2 2 3 3 3 2 3 3 3 3 3 4 3 4 4 3 3 3 4 3 3 3
3 3 3 3 2 1 1 1 2 2 2 1 2 2 2 2 2 2 2 1 1 2 2 2 3 3 2 3 3 3 3 3 3 3 4 4 4 3 3 3 3 3 3
Wind_Direction
117 125 127 123 122 123 124 127 128 126 126 124 122 119 116 112 110 107 105 105 105 105 104 101 99 93 80 67 58 52 48 47 41 37 42 57 80 90 91 79 44 114 109
119 125 128 125 124 124 126 129 128 128 128 127 126 125 122 120 118 116 115 113 112 110 108 106 103 96 86 73 63 53 44 34 9 330 286 237 184 151 127 95 59 88 100
118 127 129 127 127 127 128 129 130 131 132 131 131 131 129 127 125 123 120 119 117 115 114 113 108 98 90 77 56 33 5 328 294 276 264 245 188 164 149 128 106 106 110
122 130 131 131 130 131 131 131 133 136 137 136 136 136 135 133 133 131 129 127 124 121 118 116 111 102 92 76 27 337 308 290 281 277 261 240 176 152 153 145 130 122 127
121 126 129 134 132 133 134 135 137 139 140 139 139 140 141 141 140 138 137 135 133 130 125 121 114 101 71 4 330 309 298 293 287 276 271 251 122 145 148 147 147 150 144
125 128 134 137 136 136 137 140 142 142 143 143 144 145 146 146 145 146 144 144 145 146 144 142 141 144 321 306 302 295 293 292 288 269 255 174 128 142 142 148 157 165 167
130 131 137 140 140 140 142 143 145 146 146 148 149 149 150 153 155 156 157 160 166 172 177 184 195 224 253 280 285 285 286 289 275 271 268 137 125 137 141 152 164 176 187
131 131 136 143 144 145 146 146 147 147 149 150 152 154 158 161 164 168 175 179 188 200 214 224 229 241 251 264 273 277 281 284 287 287 278 129 132 141 144 153 168 185 197
129 130 139 145 145 146 147 148 149 149 151 153 158 162 166 172 179 181 184 190 201 216 228 239 246 249 250 255 260 264 270 277 282 275 260 131 137 140 142 151 171 197 206
127 131 138 142 146 150 150 152 153 153 156 159 166 173 178 186 192 194 193 199 206 220 233 242 250 253 254 253 253 255 261 271 262 262 234 135 134 140 149 166 185 199 208
126 132 140 142 149 154 154 151 155 157 159 162 170 182 191 199 196 197 199 188 202 216 230 241 247 250 254 250 247 249 255 252 252 238 167 132 140 146 157 182 202 213 221
132 141 148 148 154 159 155 148 161 166 161 178 172 181 201 216 216 196 180 189 205 218 229 240 248 249 247 245 236 238 243 249 257 237 139 137 146 157 177 205 221 226 232
143 145 150 148 152 160 148 154 166 171 161 182 172 185 202 218 203 185 172 187 209 218 229 234 237 238 239 246 248 230 241 258 261 240 145 152 161 178 201 218 232 237 237
145 149 149 147 151 158 143 157 162 163 156 173 175 192 194 207 215 190 181 190 214 208 219 245 246 243 259 260 258 251 253 253 259 192 167 165 174 192 213 228 236 243 244
141 146 146 139 141 137 131 166 162 159 153 169 163 174 211 204 200 203 184 224 250 241 229 260 272 271 269 268 267 266 272 264 250 253 173 185 190 204 221 233 240 245 247
141 143 141 140 135 143 145 156 157 151 148 158 154 168 199 188 136 279 235 235 258 271 261 258 268 268 260 261 266 270 273 284 255 250 215 204 204 210 221 229 238 246 249
128 125 129 141 140 152 155 170 161 159 151 155 151 160 170 172 152 229 248 235 263 275 270 263 273 277 270 272 272 273 262 255 261 238 243 230 212 217 222 223 231 239 246
119 117 125 149 141 145 156 175 170 179 161 161 160 158 170 179 193 237 245 246 287 272 256 263 272 290 288 282 276 269 264 244 243 236 238 245 230 227 222 223 229 234 240
124 132 136 133 141 160 166 179 204 186 177 174 168 156 168 185 197 231 249 253 265 272 270 277 280 276 278 276 271 256 254 253 235 243 232 244 244 237 226 220 226 231 235
131 133 140 140 128 146 152 171 214 208 200 213 164 152 161 193 211 235 240 235 264 269 270 278 285 270 272 271 278 276 258 256 243 234 235 241 237 245 241 231 216 228 229
124 121 133 141 136 160 177 192 209 213 210 228 204 163 182 199 213 245 272 264 266 264 269 272 274 276 274 271 284 287 268 245 236 232 229 237 235 242 248 232 216 222 220
135 141 139 130 139 180 187 206 221 211 219 211 209 186 204 211 224 239 244 273 275 276 271 270 275 276 282 276 274 294 292 270 248 246 223 226 238 236 239 243 226 217 217
151 158 160 155 148 164 201 202 209 192 260 242 216 202 209 217 227 248 240 262 275 276 279 279 266 268 279 286 269 264 284 291 311 269 256 240 226 228 235 241 227 218 218
175 160 151 141 153 171 212 211 218 223 227 227 220 205 208 220 226 238 240 249 261 278 286 281 285 278 277 281 279 257 256 278 282 294 281 267 259 245 240 250 249 224 223
152 134 134 150 158 175 226 219 243 248 243 236 208 195 217 230 232 242 242 251 273 279 284 297 299 288 279 276 284 285 283 278 260 264 284 286 278 260 249 243 246 241 229
130 132 140 149 147 183 213 221 242 256 253 232 236 220 224 225 223 233 242 263 282 283 291 293 289 291 288 284 286 285 287 287 284 277 278 281 278 270 259 243 235 232 229